Location: München
(48.1351°N, 11.5820°E)
Time: 17:30:36
(UTC+01:00)

ISS - Pass Details

Date: 27 January 2020
Orbit: 415 x 422 km, 51.6° (Epoch: 26 February)

Event Time Altitude Azimuth Distance (km) Brightness Sun altitude
Rises 17:34:16 0° 243° (WSW) 2,372 2.8 -5.4°
Reaches altitude 10° 17:36:22 10° 242° (WSW) 1,509 0.9 -5.7°
Maximum altitude 17:39:46 82° 155° (SSE) 433 -3.7 -6.2°
Drops below altitude 10° 17:43:03 11° 69° (ENE) 1,467 -1.7 -6.7°
Enters shadow 17:43:22 - 68° (ENE) 1,598 -1.5 -6.8°
